This demonstration page uses our WeatherBlox Daily Observations layout. Learn more.

Left ArrowRight Arrow

Hourly Observations for August 1, 2021

Temp ( °F °C ) Dew Point ( °F °C ) Humidity (%) Winds ( mph kmh ) Pressure ( in mb ) Visibility ( mi km ) Precip ( " mm )
12:15 am 00:15 Clear 61 16 61 16 100 100 WNW 3 6 29.97 1015 7 11 N/A
12:35 am 00:35 Clear 59 15 59 15 100 100 WNW 3 6 29.97 1015 7 11 N/A
12:55 am 00:55 Clear 57 14 57 14 100 100 N N/A 29.98 1015 7 11 N/A
1:15 am 01:15 Clear 57 14 57 14 100 100 N N/A 29.97 1015 7 11 N/A
1:35 am 01:35 Clear 57 14 57 14 100 100 W 3 6 29.98 1015 5 8 N/A
1:55 am 01:55 Clear 57 14 57 14 100 100 W 3 6 29.98 1015 7 11 N/A
2:15 am 02:15 Clear 55 13 55 13 100 100 SW 3 6 29.98 1015 5 8 N/A
2:35 am 02:35 Clear 57 14 57 14 100 100 WSW 5 7 29.98 1015 7 11 N/A
2:55 am 02:55 Clear 57 14 57 14 100 100 W 3 6 29.97 1015 7 11 N/A
3:15 am 03:15 Clear 55 13 55 13 100 100 W 3 6 29.97 1015 7 11 N/A
3:35 am 03:35 Clear 55 13 55 13 100 100 WSW 5 7 29.97 1015 5 8 N/A
3:55 am 03:55 Clear 57 14 57 14 100 100 N N/A 29.97 1015 7 11 N/A
4:15 am 04:15 Clear 54 12 54 12 100 100 N N/A 29.97 1015 7 11 N/A
4:35 am 04:35 Clear 57 14 57 14 100 100 N N/A 29.96 1014 7 11 N/A
4:55 am 04:55 Clear 55 13 55 13 100 100 WNW 3 6 29.97 1015 5 8 N/A
5:15 am 05:15 Clear 55 13 55 13 100 100 W 3 6 29.96 1015 7 11 N/A
5:35 am 05:35 Clear 54 12 54 12 100 100 W 3 6 29.96 1015 7 11 N/A
5:55 am 05:55 Clear 55 13 55 13 100 100 N N/A 29.96 1015 7 11 N/A
6:15 am 06:15 Clear 55 13 55 13 100 100 N N/A 29.96 1015 7 11 N/A
6:35 am 06:35 Clear 57 14 57 14 100 100 N N/A 29.96 1014 7 11 N/A
6:55 am 06:55 Sunny 57 14 57 14 100 100 N N/A 29.96 1014 5 8 N/A
7:15 am 07:15 Sunny 57 14 57 14 100 100 W 6 9 29.96 1014 5 8 N/A
7:35 am 07:35 Sunny 57 14 57 14 100 100 WSW 3 6 29.97 1015 5 8 N/A
7:55 am 07:55 Sunny 61 16 61 16 100 100 WSW 5 7 29.96 1015 5 8 N/A
8:15 am 08:15 Sunny 63 17 63 17 100 100 WSW 6 9 29.97 1015 5 8 N/A
8:35 am 08:35 Sunny 64 18 64 18 100 100 W 7 11 29.96 1015 5 8 N/A
8:55 am 08:55 Partly Cloudy 66 19 66 19 100 100 W 8 13 29.97 1015 5 8 N/A
9:15 am 09:15 Partly Cloudy 66 19 66 19 100 100 W 10 17 29.97 1015 7 11 N/A
9:35 am 09:35 Mostly Cloudy 66 19 66 19 100 100 W 8 13 29.97 1015 7 11 N/A
9:55 am 09:55 Cloudy 70 21 70 21 100 100 W 9 15 29.97 1015 7 11 N/A
10:15 am 10:15 Cloudy 70 21 70 21 100 100 W 8 13 29.97 1015 7 11 N/A
10:35 am 10:35 Cloudy 70 21 70 21 100 100 WNW 7 11 29.98 1015 7 11 N/A
10:55 am 10:55 Cloudy 70 21 70 21 100 100 WNW 7 11 29.98 1015 7 11 N/A
11:15 am 11:15 Cloudy 72 22 72 22 100 100 WNW 6 9 29.97 1015 7 11 N/A
11:35 am 11:35 Cloudy 72 22 70 21 94 94 W 7 11 29.98 1015 7 11 N/A
11:55 am 11:55 Mostly Cloudy 73 23 72 22 94 94 W 6 9 29.98 1015 7 11 N/A
12:15 pm 12:15 Mostly Cloudy 75 24 72 22 89 89 NW 6 9 29.98 1015 7 11 N/A
12:35 pm 12:35 Mostly Cloudy 75 24 72 22 89 89 W 12 19 29.98 1015 7 11 N/A
12:55 pm 12:55 Mostly Cloudy 75 24 72 22 89 89 WNW 12 19 29.97 1015 7 11 N/A
1:15 pm 13:15 Cloudy 77 25 72 22 83 83 WNW 9 15 29.96 1015 7 11 N/A
1:35 pm 13:35 Mostly Cloudy 77 25 70 21 79 79 NW 13 20 29.96 1015 7 11 N/A
1:55 pm 13:55 Mostly Cloudy 77 25 70 21 79 79 NNW 10 17 29.96 1015 7 11 N/A
2:15 pm 14:15 Mostly Cloudy 79 26 70 21 74 74 WNW 10 17 29.95 1014 7 11 N/A
2:35 pm 14:35 Partly Cloudy 81 27 68 20 66 66 WNW 10 17 29.95 1014 10 16 N/A
2:55 pm 14:55 Partly Cloudy 81 27 66 19 62 62 NW 13 20 29.95 1014 10 16 N/A
3:15 pm 15:15 Mostly Cloudy 79 26 66 19 65 65 NNW 15 24 29.95 1014 10 16 N/A
3:35 pm 15:35 Cloudy 75 24 66 19 74 74 N 12 19 29.97 1015 10 16 N/A
3:55 pm 15:55 Cloudy 75 24 64 18 69 69 NNW 13 20 29.98 1015 10 16 N/A
4:15 pm 16:15 Mostly Cloudy 79 26 66 19 65 65 N 14 22 29.96 1015 10 16 N/A
4:35 pm 16:35 Partly Cloudy 79 26 64 18 61 61 N 14 22 29.96 1015 10 16 N/A
4:55 pm 16:55 Partly Cloudy 79 26 63 17 58 58 N 16 26 29.96 1015 10 16 N/A
5:15 pm 17:15 Partly Cloudy 79 26 63 17 58 58 N 16 26 29.97 1015 10 16 N/A
5:35 pm 17:35 Partly Cloudy 77 25 61 16 57 57 N 15 24 29.98 1015 10 16 N/A
5:55 pm 17:55 Partly Cloudy 77 25 61 16 57 57 N 16 26 29.98 1015 7 11 N/A
6:15 pm 18:15 Partly Cloudy 77 25 61 16 57 57 N 13 20 29.98 1015 10 16 N/A
6:35 pm 18:35 Sunny 77 25 61 16 57 57 N 17 28 29.98 1015 10 16 N/A
6:55 pm 18:55 Sunny 75 24 61 16 61 61 N 16 26 29.99 1015 7 11 N/A
7:15 pm 19:15 Sunny 75 24 61 16 61 61 N 15 24 30.00 1016 7 11 N/A
7:35 pm 19:35 Sunny 73 23 61 16 65 65 N 13 20 30.01 1016 10 16 N/A
7:55 pm 19:55 Sunny 72 22 59 15 65 65 N 14 22 30.01 1016 10 16 N/A
8:15 pm 20:15 Sunny 70 21 61 16 73 73 N 12 19 30.03 1017 10 16 N/A
8:35 pm 20:35 Sunny 68 20 59 15 73 73 N 9 15 30.03 1017 10 16 N/A
8:55 pm 20:55 Sunny 66 19 59 15 78 78 NNW 10 17 30.03 1017 10 16 N/A
9:15 pm 21:15 Clear 66 19 57 14 73 73 NNW 8 13 30.04 1017 10 16 N/A
9:35 pm 21:35 Clear 64 18 57 14 78 78 NNW 9 15 30.05 1018 10 16 N/A
9:55 pm 21:55 Clear 63 17 57 14 83 83 NNW 9 15 30.06 1018 10 16 N/A
10:15 pm 22:15 Clear 61 16 55 13 83 83 NNW 8 13 30.07 1018 10 16 N/A
10:35 pm 22:35 Clear 61 16 55 13 83 83 NNW 7 11 30.08 1019 10 16 N/A
10:55 pm 22:55 Clear 59 15 55 13 88 88 NNW 5 7 30.08 1019 10 16 N/A
11:15 pm 23:15 Clear 61 16 55 13 83 83 NNW 5 7 30.08 1019 10 16 N/A
11:35 pm 23:35 Clear 57 14 55 13 94 94 N N/A 30.09 1019 10 16 N/A
11:55 pm 23:55 Clear 59 15 55 13 88 88 N N/A 30.09 1019 10 16 N/A

Powered by AerisWeather